TimeCDT,TemperatureF,Dew PointF,Humidity,Sea Level PressureIn,VisibilityMPH,Wind Direction,Wind SpeedMPH,Gust SpeedMPH,PrecipitationIn,Events,Conditions,WindDirDegrees,DateUTC
12:53 AM,28.0,24.1,85,30.39,10.0,Calm,Calm,-,N/A,,Clear,0,2013-03-13 05:53:00
1:53 AM,26.1,21.9,84,30.40,10.0,Calm,Calm,-,N/A,,Clear,0,2013-03-13 06:53:00
3:53 AM,24.1,21.0,88,30.41,10.0,Calm,Calm,-,N/A,,Clear,0,2013-03-13 08:53:00
4:53 AM,23.0,19.9,88,30.41,10.0,Calm,Calm,-,N/A,,Clear,0,2013-03-13 09:53:00
5:53 AM,21.9,19.9,92,30.43,10.0,Calm,Calm,-,N/A,,Clear,0,2013-03-13 10:53:00
6:53 AM,21.9,19.9,92,30.46,10.0,Calm,Calm,-,N/A,,Clear,0,2013-03-13 11:53:00
7:53 AM,23.0,19.9,88,30.48,10.0,Calm,Calm,-,N/A,,Clear,0,2013-03-13 12:53:00
8:53 AM,32.0,25.0,75,30.49,10.0,Calm,Calm,-,N/A,,Clear,0,2013-03-13 13:53:00
9:53 AM,36.0,25.0,64,30.50,10.0,ENE,5.8,-,N/A,,Clear,60,2013-03-13 14:53:00
10:53 AM,39.9,25.0,55,30.52,10.0,Calm,Calm,-,N/A,,Clear,0,2013-03-13 15:53:00
11:53 AM,44.1,19.0,37,30.51,10.0,Variable,3.5,-,N/A,,Clear,0,2013-03-13 16:53:00
12:53 PM,48.0,19.0,32,30.50,10.0,NE,6.9,-,N/A,,Clear,40,2013-03-13 17:53:00
1:53 PM,50.0,18.0,28,30.47,10.0,East,4.6,-,N/A,,Partly Cloudy,100,2013-03-13 18:53:00
2:53 PM,51.1,16.0,25,30.44,10.0,Calm,Calm,-,N/A,,Clear,0,2013-03-13 19:53:00
3:53 PM,53.1,18.0,25,30.41,10.0,SE,8.1,-,N/A,,Clear,140,2013-03-13 20:53:00
4:53 PM,54.0,19.9,26,30.40,10.0,SSE,10.4,-,N/A,,Clear,150,2013-03-13 21:53:00
5:53 PM,53.1,19.9,27,30.38,10.0,SSE,6.9,-,N/A,,Clear,150,2013-03-13 22:53:00
6:53 PM,51.1,19.9,29,30.37,10.0,SSE,6.9,-,N/A,,Clear,150,2013-03-13 23:53:00
7:53 PM,42.1,24.1,49,30.37,10.0,Calm,Calm,-,N/A,,Clear,0,2013-03-14 00:53:00
9:53 PM,37.9,26.1,62,30.36,10.0,South,3.5,-,N/A,,Clear,190,2013-03-14 02:53:00
10:53 PM,37.0,26.1,65,30.36,10.0,Calm,Calm,-,N/A,,Clear,0,2013-03-14 03:53:00
11:53 PM,34.0,26.1,73,30.35,10.0,Calm,Calm,-,N/A,,Clear,0,2013-03-14 04:53:00